FW5909 Weather Reports


time (UTC)temp
C
wind
direction
speed
KPH
gust
KPH
rain 1hr
cm
rain 24hr
cm
rain mn
cm
humidity
%
barometer
mb
20260508014552 11 332 4.8 11.3 0.00 0.08 0.03 49 1006.8
20260508014047 11 326 1.6 8.0 0.00 0.08 0.03 49 1006.7
20260508013546 11 48 1.6 8.0 0.00 0.08 0.03 50 1006.7
20260508013053 10 25 1.6 8.0 0.00 0.08 0.03 52 1006.5
20260508012549 10 0 0.0 3.2 0.00 0.08 0.03 55 1006.4
20260508012046 10 0 0.0 1.6 0.00 0.08 0.03 51 1006.4
20260508011553 11 0 0.0 0.0 0.00 0.08 0.03 52 1006.3
20260508011048 11 0 0.0 0.0 0.00 0.08 0.03 50 1006.0
20260508010549 11 0 0.0 1.6 0.00 0.08 0.03 49 1006.1
20260508005549 11 0 0.0 1.6 0.00 0.08 0.03 47 1006.0
20260508005047 11 0 0.0 1.6 0.00 0.08 0.03 46 1006.0
20260508004554 11 0 0.0 4.8 0.00 0.08 0.03 47 1005.9
20260508004050 11 275 0.0 4.8 0.00 0.08 0.03 46 1005.9
20260508003548 12 269 0.0 4.8 0.00 0.08 0.03 44 1005.7
20260508003113 12 267 1.6 8.0 0.00 0.08 0.03 44 1005.6
20260508002548 12 259 1.6 8.0 0.00 0.08 0.03 44 1005.5
20260508002049 12 288 0.0 4.8 0.00 0.08 0.03 44 1005.4
20260508001556 12 242 1.6 6.4 0.00 0.08 0.03 45 1005.4
20260508001049 12 310 0.0 11.3 0.00 0.08 0.03 44 1005.4
20260508000550 12 290 1.6 11.3 0.00 0.08 0.03 43 1005.3
20260508000054 12 272 1.6 8.0 0.00 0.08 0.03 43 1005.2
20260507235549 13 271 3.2 8.0 0.00 0.08 0.03 41 1005.3
20260507235049 13 279 3.2 11.3 0.00 0.08 0.03 41 1005.2
20260507234556 13 287 6.4 11.3 0.00 0.08 0.03 41 1005.2
20260507234051 13 267 1.6 12.9 0.00 0.08 0.03 41 1005.2
20260507233546 13 264 3.2 14.5 0.00 0.08 0.03 41 1005.1
20260507233053 14 288 4.8 17.7 0.00 0.08 0.03 39 1005.0
20260507232550 14 291 9.7 17.7 0.00 0.08 0.03 39 1005.0
20260507232047 14 253 8.0 17.7 0.00 0.08 0.03 39 1005.1
20260507231553 15 240 4.8 14.5 0.00 0.08 0.03 37 1004.9
20260507231048 15 293 4.8 17.7 0.00 0.08 0.03 37 1004.9
20260507230549 15 278 8.0 17.7 0.00 0.08 0.03 37 1004.8
20260507230107 15 239 8.0 20.9 0.00 0.08 0.03 37 1004.7
20260507225546 15 295 11.3 20.9 0.00 0.10 0.03 37 1004.9
20260507225050 15 280 11.3 24.1 0.00 0.10 0.03 36 1004.8
20260507224555 15 259 11.3 24.1 0.00 0.10 0.03 37 1004.7
20260507224048 15 296 9.7 24.1 0.00 0.10 0.03 37 1004.5
20260507223549 15 293 14.5 24.1 0.00 0.10 0.03 36 1004.6
20260507223201 15 300 8.0 24.1 0.00 0.10 0.03 36 1004.5
20260507222550 15 299 12.9 27.4 0.00 0.10 0.03 35 1004.4
20260507222050 15 288 14.5 27.4 0.00 0.10 0.03 37 1004.5
20260507221552 15 329 12.9 24.1 0.00 0.10 0.03 36 1004.3
20260507221046 15 291 12.9 24.1 0.00 0.10 0.03 35 1004.3
20260507220545 15 309 17.7 24.1 0.00 0.10 0.03 34 1004.3
20260507220049 15 260 14.5 29.0 0.00 0.10 0.03 36 1004.2
20260507215549 16 295 14.5 29.0 0.00 0.23 0.03 37 1004.2
20260507215046 16 316 11.3 25.7 0.00 0.23 0.03 36 1004.3
20260507214557 16 296 4.8 25.7 0.00 0.23 0.03 37 1004.2
20260507214049 16 273 14.5 25.7 0.00 0.23 0.03 35 1004.3
20260507213549 16 340 12.9 32.2 0.00 0.23 0.03 36 1004.2
20260507213121 16 269 11.3 32.2 0.00 0.23 0.03 38 1004.3
20260507212551 16 275 9.7 22.5 0.00 0.23 0.03 36 1004.1
20260507212049 16 240 9.7 27.4 0.00 0.23 0.03 39 1004.2
20260507211552 16 317 9.7 27.4 0.00 0.23 0.03 37 1004.3
20260507211049 16 281 14.5 29.0 0.00 0.23 0.03 36 1004.3
20260507210551 16 316 17.7 29.0 0.00 0.23 0.03 35 1004.3
20260507210055 16 264 14.5 27.4 0.00 0.23 0.03 37 1004.0
20260507205549 16 261 9.7 25.7 0.00 0.38 0.03 39 1004.1
20260507205053 16 336 14.5 27.4 0.00 0.38 0.03 38 1004.2
20260507204552 16 299 17.7 27.4 0.00 0.38 0.03 37 1003.9
20260507204049 16 264 14.5 27.4 0.00 0.38 0.03 39 1003.9
20260507203549 16 303 8.0 22.5 0.00 0.38 0.03 40 1003.8
20260507203051 16 237 12.9 30.6 0.00 0.38 0.03 39 1003.9
20260507202550 15 270 12.9 30.6 0.00 0.38 0.03 40 1004.0
20260507202052 16 252 19.3 32.2 0.00 0.38 0.03 39 1004.0
20260507201609 16 296 19.3 33.8 0.00 0.38 0.03 37 1003.8
20260507201047 16 282 20.9 33.8 0.00 0.38 0.03 38 1004.0
20260507200546 16 251 17.7 33.8 0.00 0.38 0.03 38 1003.9
20260507200104 16 289 12.9 24.1 0.00 0.38 0.03 39 1003.8
20260507195552 16 250 16.1 22.5 0.00 0.66 0.03 39 1004.0
20260507195050 16 311 8.0 30.6 0.00 0.66 0.03 40 1004.0
20260507194558 16 291 12.9 30.6 0.00 0.66 0.03 43 1004.0
20260507194052 16 322 17.7 33.8 0.00 0.66 0.03 39 1004.2
20260507193549 15 266 19.3 33.8 0.00 0.66 0.03 40 1004.1
20260507193053 16 300 19.3 32.2 0.00 0.66 0.03 41 1004.0
20260507192548 16 249 16.1 37.0 0.00 0.66 0.03 41 1004.0
20260507192047 16 250 11.3 37.0 0.00 0.66 0.03 41 1004.2
20260507191553 16 236 20.9 37.0 0.00 0.66 0.03 39 1004.3
20260507191049 16 278 12.9 27.4 0.00 0.66 0.03 43 1004.3
20260507190549 16 311 14.5 27.4 0.00 0.66 0.03 39 1004.3
20260507190056 16 283 14.5 33.8 0.00 0.66 0.03 38 1004.3
20260507185550 16 284 16.1 33.8 0.00 0.71 0.03 40 1004.4
20260507185050 16 268 14.5 30.6 0.00 0.71 0.03 43 1004.3
20260507184555 16 292 14.5 30.6 0.00 0.71 0.03 41 1004.3
20260507184047 15 276 14.5 29.0 0.00 0.71 0.03 39 1004.3
20260507183550 16 317 14.5 29.0 0.00 0.71 0.03 39 1004.5
20260507183058 15 304 11.3 24.1 0.00 0.71 0.03 43 1004.5
20260507182547 16 297 14.5 27.4 0.00 0.71 0.03 43 1004.6
20260507182050 15 304 12.9 27.4 0.00 0.71 0.03 43 1004.4
20260507181559 15 257 14.5 27.4 0.00 0.71 0.03 45 1004.3
20260507181051 15 255 9.7 25.7 0.00 0.71 0.03 45 1004.5
20260507180548 15 268 16.1 29.0 0.00 0.71 0.03 50 1004.6
20260507180057 15 283 14.5 29.0 0.00 0.71 0.03 48 1004.6
20260507175550 15 304 12.9 27.4 0.00 0.71 0.03 47 1004.6
20260507175049 15 284 12.9 24.1 0.00 0.71 0.03 55 1004.5
20260507174559 15 255 9.7 27.4 0.00 0.71 0.03 55 1004.6
20260507174048 15 270 12.9 30.6 0.00 0.71 0.03 54 1004.7
20260507173546 15 293 16.1 30.6 0.00 0.71 0.03 55 1004.9
20260507173059 15 307 12.9 30.6 0.00 0.71 0.03 61 1004.8
20260507172553 14 283 16.1 30.6 0.00 0.71 0.03 57 1004.9
20260507172047 15 272 17.7 30.6 0.00 0.71 0.03 55 1004.7
20260507171603 15 263 9.7 27.4 0.00 0.71 0.03 53 1004.9
20260507171048 15 274 11.3 27.4 0.00 0.71 0.03 59 1005.1
20260507170549 15 302 9.7 35.4 0.00 0.71 0.03 53 1005.1
20260507170056 15 285 17.7 37.0 0.00 0.71 0.03 51 1005.1
20260507165546 15 277 22.5 37.0 0.00 0.71 0.03 53 1005.0
20260507165049 15 309 17.7 35.4 0.00 0.71 0.03 54 1005.2
20260507164553 15 270 14.5 25.7 0.00 0.71 0.03 53 1005.2
20260507164045 15 265 11.3 22.5 0.00 0.71 0.03 57 1005.2
20260507163548 14 276 9.7 19.3 0.00 0.71 0.03 57 1005.3
20260507163056 14 262 11.3 29.0 0.00 0.71 0.03 58 1005.3
20260507162549 15 280 11.3 29.0 0.00 0.71 0.03 59 1005.3
20260507162049 15 281 14.5 29.0 0.00 0.71 0.03 57 1005.3
20260507161607 14 257 14.5 27.4 0.00 0.71 0.03 56 1005.3
20260507161048 14 245 17.7 27.4 0.00 0.71 0.03 57 1005.3
20260507160549 14 290 14.5 24.1 0.00 0.71 0.03 60 1005.4
20260507160058 14 303 14.5 24.1 0.00 0.71 0.03 58 1005.5
20260507155548 15 283 9.7 20.9 0.00 0.71 0.03 59 1005.7
20260507155048 14 292 11.3 19.3 0.00 0.71 0.03 59 1005.7
20260507154553 15 286 12.9 19.3 0.00 0.71 0.03 56 1005.8
20260507154048 15 306 12.9 25.7 0.00 0.71 0.03 58 1005.8
20260507153550 15 256 12.9 25.7 0.00 0.71 0.03 56 1005.9
20260507153111 15 265 12.9 25.7 0.00 0.71 0.03 55 1005.9
20260507152549 15 298 16.1 25.7 0.00 0.71 0.03 56 1005.9
20260507152049 15 308 11.3 30.6 0.00 0.71 0.03 60 1005.9
20260507151600 15 256 17.7 30.6 0.00 0.71 0.03 58 1005.8
20260507151047 15 254 14.5 29.0 0.00 0.71 0.03 60 1005.8
20260507150549 14 243 17.7 27.4 0.00 0.71 0.03 57 1005.7
20260507150104 14 300 8.0 22.5 0.00 0.71 0.03 58 1005.7
20260507145549 14 285 11.3 22.5 0.00 0.71 0.03 55 1005.7
20260507145049 15 312 8.0 20.9 0.00 0.71 0.03 56 1005.8
20260507144552 15 287 12.9 20.9 0.00 0.71 0.03 53 1005.6
20260507144050 15 259 9.7 19.3 0.00 0.71 0.03 57 1005.6
20260507143550 15 266 4.8 20.9 0.00 0.71 0.03 56 1005.8
20260507143055 14 295 9.7 20.9 0.00 0.71 0.03 60 1005.6
20260507142548 14 265 6.4 12.9 0.00 0.71 0.03 60 1005.6
20260507142050 14 30 6.4 17.7 0.00 0.71 0.03 62 1005.7
20260507141603 14 312 4.8 17.7 0.00 0.71 0.03 63 1005.9
20260507141048 14 277 6.4 17.7 0.00 0.71 0.03 64 1005.9
20260507140550 14 335 4.8 17.7 0.00 0.71 0.03 66 1005.9
20260507140057 13 352 6.4 17.7 0.00 0.71 0.03 66 1006.0
20260507135549 13 272 8.0 16.1 0.00 0.71 0.03 64 1006.0
20260507135052 13 260 6.4 14.5 0.00 0.71 0.03 66 1006.1
20260507134604 13 312 6.4 12.9 0.00 0.71 0.03 67 1006.3
20260507134050 13 271 3.2 12.9 0.00 0.71 0.03 67 1006.3
20260507133549 13 326 4.8 17.7 0.00 0.71 0.03 69 1006.4
20260507133056 13 310 6.4 17.7 0.00 0.71 0.03 68 1006.2
20260507132549 13 307 4.8 12.9 0.00 0.71 0.03 68 1006.3
20260507132048 12 257 4.8 14.5 0.00 0.71 0.03 71 1006.4
20260507131559 12 323 3.2 14.5 0.00 0.71 0.03 70 1006.4
20260507131046 12 302 6.4 14.5 0.00 0.71 0.03 70 1006.5
20260507130550 12 261 4.8 12.9 0.00 0.71 0.03 72 1006.5
20260507130108 12 297 6.4 16.1 0.00 0.71 0.03 71 1006.5
20260507125547 12 296 9.7 16.1 0.00 0.71 0.03 71 1006.5
20260507125048 12 291 6.4 16.1 0.00 0.71 0.03 74 1006.7
20260507124618 11 291 11.3 16.1 0.00 0.71 0.03 72 1006.5
20260507124046 11 300 9.7 14.5 0.00 0.71 0.03 73 1006.6
20260507123546 11 289 4.8 14.5 0.00 0.71 0.03 74 1006.8
20260507123105 11 296 4.8 14.5 0.00 0.71 0.03 77 1006.8
20260507122549 11 326 8.0 14.5 0.00 0.71 0.03 76 1006.8
20260507122049 11 233 1.6 6.4 0.00 0.71 0.03 81 1006.8
20260507121600 10 292 1.6 6.4 0.00 0.71 0.03 85 1006.8
20260507121049 10 311 3.2 6.4 0.00 0.71 0.03 85 1006.8
20260507120548 10 297 1.6 4.8 0.00 0.71 0.03 86 1006.7
20260507120052 10 269 1.6 4.8 0.00 0.71 0.03 87 1006.8
20260507115546 9 260 1.6 4.8 0.00 0.71 0.03 88 1006.7
20260507115045 9 0 0.0 4.8 0.00 0.71 0.03 89 1006.6
20260507114555 9 274 0.0 4.8 0.00 0.71 0.03 91 1006.7
20260507114048 8 249 1.6 4.8 0.00 0.71 0.03 91 1007.0
20260507113552 8 290 1.6 3.2 0.00 0.71 0.03 91 1006.8
20260507113047 8 285 0.0 3.2 0.00 0.71 0.03 92 1006.6
20260507112549 8 291 0.0 3.2 0.00 0.71 0.03 92 1006.6
20260507112047 8 281 0.0 6.4 0.00 0.71 0.03 93 1006.6
20260507111551 8 321 1.6 6.4 0.00 0.71 0.03 93 1006.6
20260507111047 8 296 1.6 4.8 0.00 0.71 0.03 94 1006.6
20260507110546 8 264 1.6 4.8 0.00 0.71 0.03 94 1006.9
20260507110054 8 348 1.6 4.8 0.00 0.71 0.03 94 1006.6
20260507105545 8 0 1.6 3.2 0.00 0.71 0.03 95 1006.8
20260507105053 8 294 0.0 3.2 0.00 0.71 0.03 95 1006.8
20260507104555 8 0 0.0 3.2 0.00 0.71 0.03 95 1006.8
20260507104046 8 297 0.0 1.6 0.00 0.71 0.03 95 1006.7
20260507103547 8 0 0.0 4.8 0.00 0.71 0.03 95 1006.7
20260507103049 8 4 1.6 4.8 0.00 0.71 0.03 95 1006.7
20260507102549 8 305 0.0 3.2 0.00 0.71 0.03 95 1007.2
20260507102047 8 252 0.0 3.2 0.00 0.71 0.03 95 1007.3
20260507101559 8 264 0.0 1.6 0.00 0.71 0.03 95 1007.0
20260507101048 8 257 0.0 1.6 0.00 0.71 0.03 95 1006.7
20260507100546 8 255 0.0 1.6 0.00 0.71 0.03 95 1007.1
20260507100058 8 0 0.0 1.6 0.00 0.71 0.03 94 1006.8
20260507095547 8 0 0.0 1.6 0.00 0.71 0.03 94 1006.9
20260507095047 8 0 0.0 4.8 0.00 0.71 0.03 94 1006.8
20260507094547 8 257 0.0 4.8 0.00 0.71 0.03 94 1007.0
20260507094046 8 252 3.2 4.8 0.00 0.71 0.03 94 1006.8
20260507093546 8 242 3.2 3.2 0.00 0.71 0.03 94 1006.8
20260507093057 8 302 1.6 3.2 0.00 0.71 0.03 94 1006.2
20260507092549 8 0 0.0 4.8 0.00 0.71 0.03 94 1006.1
20260507092045 8 249 1.6 4.8 0.00 0.71 0.03 94 1006.6
20260507091558 8 272 0.0 4.8 0.00 0.71 0.03 94 1006.7
20260507091049 8 0 0.0 4.8 0.00 0.71 0.03 94 1006.0
20260507090549 8 18 1.6 4.8 0.00 0.71 0.03 93 1006.2
20260507090051 8 1 1.6 8.0 0.00 0.71 0.03 93 1005.9
20260507085547 8 297 3.2 8.0 0.00 0.71 0.03 93 1006.2
20260507085048 8 318 4.8 6.4 0.00 0.71 0.03 93 1006.0
20260507084551 8 12 1.6 8.0 0.00 0.71 0.03 93 1006.1
20260507084049 9 340 1.6 8.0 0.00 0.71 0.03 92 1006.0
20260507083549 9 52 3.2 8.0 0.00 0.71 0.03 92 1005.9
20260507083106 9 53 3.2 6.4 0.00 0.71 0.03 92 1006.0
20260507082546 9 25 1.6 6.4 0.00 0.71 0.03 92 1006.3
20260507082049 9 278 1.6 6.4 0.00 0.71 0.03 92 1006.4
20260507081600 9 259 0.0 4.8 0.00 0.71 0.03 92 1006.4
20260507081049 9 0 0.0 6.4 0.00 0.71 0.03 92 1006.1
20260507080549 9 0 0.0 6.4 0.00 0.71 0.03 92 1005.8
20260507080056 9 27 1.6 4.8 0.00 0.71 0.03 92 1005.7
20260507075549 9 313 0.0 6.4 0.00 0.71 0.03 92 1005.8
20260507075049 9 298 1.6 6.4 0.00 0.71 0.03 92 1005.7
20260507074558 9 295 1.6 11.3 0.00 0.71 0.03 92 1005.7
20260507074045 9 346 3.2 11.3 0.00 0.71 0.03 91 1005.5
20260507073545 9 352 4.8 11.3 0.00 0.71 0.03 91 1005.5
20260507073100 9 264 6.4 9.7 0.00 0.71 0.03 91 1005.9
20260507072545 10 283 4.8 11.3 0.00 0.71 0.03 91 1005.7
20260507072048 10 266 3.2 12.9 0.00 0.71 0.03 92 1005.8
20260507071549 10 281 4.8 12.9 0.00 0.71 0.03 92 1005.9
20260507071045 10 308 4.8 12.9 0.00 0.71 0.03 92 1005.7
20260507070550 10 282 4.8 9.7 0.00 0.71 0.03 92 1005.3
20260507070055 10 27 3.2 14.5 0.00 0.71 0.03 92 1005.0
20260507065545 10 342 6.4 14.5 0.00 0.71 0.03 91 1005.0
20260507065045 10 300 8.0 14.5 0.00 0.71 0.03 92 1005.5
20260507064554 10 280 4.8 11.3 0.00 0.71 0.03 92 1005.4
20260507064052 10 267 3.2 12.9 0.00 0.71 0.03 92 1005.1
20260507063545 10 300 6.4 12.9 0.00 0.71 0.03 93 1005.2
20260507063059 10 278 6.4 12.9 0.00 0.71 0.03 93 1005.1
20260507062549 10 264 6.4 14.5 0.00 0.71 0.03 93 1005.2
20260507062047 10 255 8.0 14.5 0.00 0.71 0.03 93 1005.3
20260507061551 10 277 4.8 8.0 0.00 0.71 0.03 93 1005.2
20260507061047 10 271 3.2 9.7 0.00 0.71 0.03 93 1005.0
20260507060546 10 328 3.2 9.7 0.00 0.71 0.03 93 1004.8
20260507060057 10 267 3.2 9.7 0.00 0.71 0.03 93 1004.8
20260507055547 10 252 3.2 17.7 0.00 0.71 0.03 93 1005.0
20260507055046 10 297 4.8 17.7 0.00 0.71 0.03 93 1004.9
20260507054554 10 271 8.0 17.7 0.00 0.71 0.03 93 1005.0
20260507054045 10 298 6.4 14.5 0.00 0.71 0.03 93 1004.8
20260507053547 11 292 9.7 14.5 0.00 0.71 0.03 92 1004.8
20260507053049 11 304 4.8 14.5 0.00 0.71 0.03 93 1004.7
20260507052545 11 264 6.4 17.7 0.00 0.71 0.03 93 1004.5
20260507052045 11 259 9.7 17.7 0.00 0.71 0.03 93 1004.8
20260507051558 11 232 8.0 16.1 0.00 0.71 0.03 93 1005.0
20260507051048 11 300 6.4 12.9 0.00 0.71 0.03 93 1004.8
20260507050550 11 256 4.8 17.7 0.03 0.71 0.03 93 1004.7
20260507050050 11 294 6.4 17.7 0.03 0.71 0.03 93 1004.7
20260507045549 11 290 8.0 19.3 0.03 0.71 0.03 93 1004.7
20260507045046 11 269 6.4 19.3 0.03 0.71 0.03 94 1004.8
20260507044558 11 314 9.7 19.3 0.03 0.71 0.03 94 1004.9
20260507044047 12 264 3.2 12.9 0.03 0.71 0.03 95 1004.7
20260507043547 12 300 8.0 12.9 0.03 0.71 0.03 94 1004.8
20260507043055 12 284 6.4 17.7 0.03 0.71 0.03 94 1004.4
20260507042547 12 228 4.8 17.7 0.03 0.71 0.03 93 1004.3
20260507042047 12 236 11.3 24.1 0.03 0.71 0.03 93 1004.3
20260507041551 12 267 4.8 24.1 0.03 0.71 0.03 94 1004.1
20260507041050 12 311 8.0 24.1 0.00 0.69 0.00 94 1004.2
20260507040547 12 254 4.8 12.9 0.03 0.69 0.00 94 1004.3
20260507040055 12 279 4.8 19.3 0.03 0.69 0.00 94 1004.3
20260507035547 12 281 8.0 19.3 0.03 0.69 0.69 94 1004.2
20260507035047 13 259 11.3 19.3 0.05 0.69 0.69 95 1004.3
20260507034556 13 302 8.0 17.7 0.05 0.69 0.69 95 1004.4
20260507034047 13 266 8.0 17.7 0.05 0.69 0.69 96 1004.4
20260507033547 13 264 8.0 17.7 0.05 0.69 0.69 97 1004.5
20260507033055 13 277 11.3 25.7 0.05 0.69 0.69 98 1004.5
20260507032547 13 270 12.9 25.7 0.05 0.69 0.69 100 1004.3
20260507032050 12 278 4.8 16.1 0.05 0.69 0.69 100 1004.3
20260507031553 12 211 3.2 14.5 0.05 0.69 0.69 100 1003.9
20260507031049 12 299 4.8 14.5 0.05 0.69 0.69 99 1004.0
20260507030546 12 293 1.6 6.4 0.03 0.66 0.66 99 1003.9
20260507030054 12 174 1.6 6.4 0.03 0.66 0.66 99 1003.6
20260507025549 12 0 0.0 4.8 0.03 0.66 0.66 99 1003.7
20260507025050 12 165 3.2 8.0 0.00 0.64 0.64 99 1003.7
20260507024606 12 143 1.6 8.0 0.00 0.64 0.64 99 1003.7
20260507024047 12 187 3.2 8.0 0.00 0.64 0.64 99 1003.7
20260507023552 12 150 3.2 9.7 0.00 0.64 0.64 99 1003.8
20260507023052 12 160 3.2 9.7 0.00 0.64 0.64 99 1003.9
20260507022549 12 152 6.4 9.7 0.00 0.64 0.64 99 1003.9
20260507022047 12 160 6.4 9.7 0.00 0.64 0.64 99 1004.0
20260507021551 12 172 4.8 9.7 0.00 0.64 0.64 99 1003.9
20260507021047 12 165 6.4 11.3 0.00 0.64 0.64 99 1004.1
20260507020547 12 161 6.4 11.3 0.00 0.64 0.64 99 1004.2
20260507020109 12 157 6.4 8.0 0.00 0.64 0.64 99 1004.4
20260507015546 12 150 3.2 8.0 0.00 0.64 0.64 99 1004.4
20260507015047 12 219 3.2 8.0 0.00 0.64 0.64 99 1004.4